When you browse on this site, cookies collect data to enhance your experience and personalize the content and advertising you see.
Visit our Privacy Policy to learn more. By continuing to use the site, you agree to this use of cookies and data.
  • In United Kingdom
  • List of Countries
  • For 7 days
  • Water Temperature
  • Weather Map
  • Weather Widgets
  • user-avatar
    Login

    Hourly Weather Komarom

    Today, 23 September, Monday

    Time Temperature Precipitation Wind Pressure Humidity
    00:00 +16°C° 0 mm 3 mps 750 mmHg 43%
    01:00 +16°C° 0 mm 3 mps 750 mmHg 44%
    02:00 +16°C° 0 mm 3 mps 750 mmHg 44%
    03:00 +16°C° 0 mm 3 mps 750 mmHg 45%
    04:00 +16°C° 0 mm 3 mps 749 mmHg 45%
    05:00 +16°C° 0 mm 3 mps 749 mmHg 46%
    06:00 +16°C° 0 mm 3 mps 749 mmHg 47%
    07:00 +16°C° 0 mm 3 mps 749 mmHg 48%
    08:00 +17°C° 0.1 mm 4 mps 750 mmHg 50%
    09:00 +17°C° 0.1 mm 4 mps 750 mmHg 52%
    10:00 +17°C° 0.1 mm 4 mps 750 mmHg 54%
    11:00 +18°C° 0 mm 4 mps 750 mmHg 54%
    12:00 +19°C° 0 mm 4 mps 750 mmHg 54%
    13:00 +19°C° 0 mm 4 mps 750 mmHg 54%
    14:00 +19°C° 0 mm 3 mps 750 mmHg 56%
    15:00 +19°C° 0 mm 3 mps 750 mmHg 58%
    16:00 +18°C° 0 mm 3 mps 750 mmHg 60%
    17:00 +17°C° 0 mm 3 mps 750 mmHg 67%
    18:00 +15°C° 0 mm 2 mps 750 mmHg 74%
    19:00 +14°C° 0 mm 2 mps 751 mmHg 81%
    20:00 +14°C° 0 mm 1 mps 751 mmHg 81%
    21:00 +14°C° 0 mm 1 mps 751 mmHg 82%
    22:00 +13°C° 0 mm 0 mps 751 mmHg 82%
    23:00 +14°C° 0 mm 1 mps 751 mmHg 82%

    Tomorrow, 24 September, Tuesday

    Time Temperature Precipitation Wind Pressure Humidity
    00:00 +14°C° 0 mm 1 mps 751 mmHg 82%
    01:00 +14°C° 0 mm 1 mps 751 mmHg 81%
    02:00 +13°C° 0 mm 1 mps 751 mmHg 85%
    03:00 +13°C° 0 mm 1 mps 751 mmHg 88%
    04:00 +12°C° 0 mm 2 mps 750 mmHg 91%
    05:00 +13°C° 0 mm 2 mps 750 mmHg 88%
    06:00 +14°C° 0 mm 2 mps 750 mmHg 86%
    07:00 +14°C° 0 mm 2 mps 750 mmHg 84%
    08:00 +16°C° 0 mm 2 mps 751 mmHg 75%
    09:00 +18°C° 0 mm 2 mps 751 mmHg 65%
    10:00 +21°C° 0 mm 2 mps 751 mmHg 56%
    11:00 +23°C° 0 mm 2 mps 750 mmHg 51%
    12:00 +24°C° 0 mm 2 mps 750 mmHg 47%
    13:00 +25°C° 0 mm 2 mps 749 mmHg 42%
    14:00 +25°C° 0 mm 1 mps 749 mmHg 42%
    15:00 +25°C° 0 mm 1 mps 749 mmHg 41%
    16:00 +25°C° 0 mm 1 mps 748 mmHg 40%
    17:00 +23°C° 0 mm 1 mps 748 mmHg 43%
    18:00 +21°C° 0 mm 2 mps 749 mmHg 46%
    19:00 +20°C° 0 mm 2 mps 749 mmHg 49%
    20:00 +19°C° 0 mm 2 mps 749 mmHg 49%
    21:00 +19°C° 0 mm 2 mps 749 mmHg 50%
    22:00 +20°C° 0 mm 1 mps 749 mmHg 50%
    23:00 +19°C° 0 mm 1 mps 749 mmHg 53%

    Day after tomorrow, 25 September, Wednesday

    Time Temperature Precipitation Wind Pressure Humidity
    00:00 +18°C° 0 mm 1 mps 749 mmHg 55%
    01:00 +18°C° 0 mm 1 mps 749 mmHg 57%
    02:00 +16°C° 0 mm 1 mps 748 mmHg 59%
    03:00 +16°C° 0 mm 1 mps 748 mmHg 61%
    04:00 +16°C° 0 mm 1 mps 748 mmHg 62%
    05:00 +16°C° 0 mm 1 mps 748 mmHg 63%
    06:00 +16°C° 0 mm 1 mps 748 mmHg 63%
    07:00 +18°C° 0 mm 1 mps 748 mmHg 63%
    08:00 +19°C° 0 mm 1 mps 748 mmHg 60%
    09:00 +20°C° 0 mm 1 mps 749 mmHg 57%
    10:00 +21°C° 0 mm 1 mps 749 mmHg 55%
    11:00 +21°C° 0 mm 1 mps 749 mmHg 55%
    12:00 +21°C° 0 mm 1 mps 748 mmHg 55%
    13:00 +22°C° 0 mm 1 mps 748 mmHg 55%
    14:00 +22°C° 0 mm 1 mps 748 mmHg 54%
    15:00 +22°C° 0 mm 1 mps 747 mmHg 54%
    16:00 +22°C° 0 mm 1 mps 747 mmHg 54%
    17:00 +21°C° 0 mm 1 mps 748 mmHg 57%
    18:00 +20°C° 0 mm 1 mps 748 mmHg 61%
    19:00 +18°C° 0 mm 1 mps 748 mmHg 64%
    20:00 +17°C° 0.2 mm 2 mps 749 mmHg 69%
    21:00 +16°C° 0.2 mm 3 mps 749 mmHg 74%
    22:00 +15°C° 0.2 mm 4 mps 749 mmHg 79%
    23:00 +14°C° 0.6 mm 4 mps 749 mmHg 83%

    26 September, Thursday

    Time Temperature Precipitation Wind Pressure Humidity
    00:00 +14°C° 0.6 mm 3 mps 749 mmHg 87%
    01:00 +13°C° 0.6 mm 3 mps 749 mmHg 90%
    02:00 +13°C° 1.7 mm 3 mps 749 mmHg 91%
    03:00 +13°C° 1.7 mm 3 mps 749 mmHg 92%
    04:00 +13°C° 1.7 mm 3 mps 750 mmHg 92%
    05:00 +14°C° 1 mm 2 mps 750 mmHg 92%
    06:00 +14°C° 1 mm 2 mps 750 mmHg 91%
    07:00 +14°C° 1 mm 1 mps 750 mmHg 90%
    08:00 +15°C° 0.1 mm 2 mps 751 mmHg 82%
    09:00 +17°C° 0.1 mm 2 mps 751 mmHg 74%
    10:00 +18°C° 0.1 mm 3 mps 751 mmHg 66%
    11:00 +19°C° 0 mm 3 mps 751 mmHg 61%
    12:00 +20°C° 0 mm 3 mps 751 mmHg 55%
    13:00 +22°C° 0 mm 4 mps 751 mmHg 49%
    14:00 +22°C° 0 mm 4 mps 751 mmHg 49%
    15:00 +22°C° 0 mm 4 mps 751 mmHg 49%
    16:00 +21°C° 0 mm 3 mps 751 mmHg 48%
    17:00 +20°C° 0 mm 3 mps 751 mmHg 54%
    18:00 +19°C° 0 mm 3 mps 752 mmHg 59%
    19:00 +17°C° 0 mm 3 mps 752 mmHg 65%
    20:00 +17°C° 0 mm 3 mps 752 mmHg 68%
    21:00 +16°C° 0 mm 3 mps 753 mmHg 71%
    22:00 +16°C° 0 mm 3 mps 753 mmHg 74%
    23:00 +16°C° 0 mm 2 mps 753 mmHg 76%

    27 September, Friday

    Time Temperature Precipitation Wind Pressure Humidity
    00:00 +15°C° 0 mm 2 mps 753 mmHg 77%
    01:00 +15°C° 0 mm 1 mps 753 mmHg 79%
    02:00 +15°C° 0 mm 1 mps 753 mmHg 80%
    03:00 +15°C° 0 mm 1 mps 753 mmHg 82%
    04:00 +14°C° 0 mm 1 mps 753 mmHg 83%
    05:00 +15°C° 0 mm 1 mps 753 mmHg 82%
    06:00 +14°C° 0 mm 0 mps 753 mmHg 80%
    07:00 +15°C° 0 mm 0 mps 753 mmHg 78%
    08:00 +18°C° 0 mm 1 mps 754 mmHg 71%
    09:00 +20°C° 0 mm 1 mps 754 mmHg 64%
    10:00 +22°C° 0 mm 1 mps 754 mmHg 57%
    11:00 +23°C° 0 mm 2 mps 753 mmHg 53%
    12:00 +24°C° 0 mm 2 mps 753 mmHg 49%
    13:00 +25°C° 0 mm 2 mps 753 mmHg 46%
    14:00 +25°C° 0 mm 3 mps 752 mmHg 45%
    15:00 +25°C° 0 mm 3 mps 752 mmHg 45%
    16:00 +25°C° 0 mm 3 mps 752 mmHg 44%
    17:00 +24°C° 0 mm 3 mps 752 mmHg 49%
    18:00 +21°C° 0 mm 3 mps 752 mmHg 54%
    19:00 +19°C° 0 mm 2 mps 752 mmHg 58%
    20:00 +19°C° 0 mm 3 mps 752 mmHg 59%
    21:00 +18°C° 0 mm 3 mps 752 mmHg 61%
    22:00 +18°C° 0 mm 3 mps 752 mmHg 62%
    23:00 +18°C° 0 mm 3 mps 752 mmHg 63%

    28 September, Saturday

    Time Temperature Precipitation Wind Pressure Humidity
    00:00 +17°C° 0 mm 3 mps 752 mmHg 64%
    01:00 +17°C° 0 mm 3 mps 752 mmHg 66%
    02:00 +16°C° 0 mm 2 mps 752 mmHg 68%
    03:00 +16°C° 0 mm 2 mps 752 mmHg 70%
    04:00 +15°C° 0 mm 2 mps 752 mmHg 72%
    05:00 +16°C° 0 mm 2 mps 751 mmHg 71%
    06:00 +16°C° 0 mm 2 mps 751 mmHg 71%
    07:00 +16°C° 0 mm 3 mps 751 mmHg 70%
    08:00 +18°C° 0 mm 3 mps 751 mmHg 65%
    09:00 +19°C° 0 mm 3 mps 752 mmHg 60%
    10:00 +21°C° 0 mm 3 mps 752 mmHg 55%
    11:00 +20°C° 0.1 mm 3 mps 752 mmHg 59%
    12:00 +20°C° 0.1 mm 2 mps 751 mmHg 63%
    13:00 +19°C° 0.1 mm 2 mps 751 mmHg 66%
    14:00 +19°C° 0 mm 2 mps 751 mmHg 68%
    15:00 +19°C° 0 mm 1 mps 751 mmHg 70%
    16:00 +19°C° 0 mm 1 mps 751 mmHg 72%
    17:00 +18°C° 0 mm 1 mps 751 mmHg 75%
    18:00 +16°C° 0 mm 1 mps 751 mmHg 79%
    19:00 +15°C° 0 mm 1 mps 751 mmHg 82%
    20:00 +15°C° 0 mm 1 mps 751 mmHg 84%
    21:00 +15°C° 0 mm 1 mps 751 mmHg 86%
    22:00 +14°C° 0 mm 1 mps 752 mmHg 88%
    23:00 +14°C° 0 mm 1 mps 752 mmHg 89%
    Show more